GFSSGP_250_spd_057.txt.gz
Wind_Speed
61 56 51 49 48 46 46 49 47 47 46 43 43 43 46 43 40 39 44 46 43 41 39 39 39 41 40 39 37 29 34 29 30 31 35 42 47 48 49 43 38 38 51 53 60 64 65 66 62
65 62 56 54 50 51 51 51 54 51 48 48 49 48 47 44 42 39 49 48 47 48 46 44 41 41 49 43 38 29 33 29 35 36 38 40 45 46 50 41 37 49 54 55 62 62 66 67 71
67 65 60 55 53 57 58 57 56 53 52 48 49 53 52 45 42 45 50 47 47 46 39 40 40 40 32 28 28 29 33 39 41 43 44 46 40 46 48 39 48 51 57 59 64 69 72 73 73
71 64 63 58 57 63 63 61 58 57 55 54 57 57 54 52 48 49 54 50 51 50 49 42 41 40 37 34 32 33 38 43 41 42 47 52 49 51 50 53 56 59 59 59 67 72 74 76 77
71 73 65 64 66 67 72 66 63 60 56 50 57 59 58 53 52 53 54 51 53 53 51 51 49 42 39 38 42 39 37 36 45 49 49 47 51 54 54 53 58 59 59 64 69 74 78 78 77
77 72 71 65 70 72 76 73 63 62 59 55 60 68 61 58 56 55 56 53 54 55 57 56 51 51 49 48 45 42 43 45 47 48 48 54 57 56 57 59 60 61 61 67 72 78 79 82 83
81 80 80 77 74 80 81 77 71 64 65 62 62 69 68 64 65 58 60 58 57 57 51 55 57 54 51 47 43 46 51 54 51 53 57 58 58 59 58 61 61 63 64 70 73 79 84 85 86
90 87 78 67 75 73 82 76 79 74 71 70 71 74 76 64 66 66 64 60 58 56 50 56 58 57 55 51 50 50 46 51 56 62 60 65 63 62 61 62 60 63 66 69 74 79 84 86 85
85 84 82 85 78 81 85 82 85 83 75 74 75 71 72 62 70 67 70 57 63 58 56 59 63 62 60 58 54 46 53 54 61 63 63 69 63 59 62 60 62 65 68 70 75 80 85 88 84
85 80 81 93 91 83 88 88 88 88 85 76 79 73 76 70 67 60 68 59 64 65 61 56 58 64 60 58 57 57 57 61 62 67 69 70 62 60 63 63 64 65 71 75 79 83 89 88 84
101 91 86 92 101 103 100 91 93 90 85 81 82 76 74 69 67 70 68 64 62 65 58 60 58 59 60 55 57 60 62 66 63 68 69 70 61 61 65 58 64 73 75 79 83 86 90 86 85
97 85 93 90 95 101 93 89 88 93 86 83 86 85 85 81 77 73 71 64 62 57 59 64 66 59 63 63 62 66 69 61 67 69 70 73 65 64 58 63 72 76 79 82 85 87 83 84 84
103 105 99 90 86 78 80 78 81 90 82 84 94 92 86 85 79 74 75 77 81 70 68 70 74 77 76 72 70 55 56 63 67 70 69 73 64 62 64 74 76 78 82 85 85 88 83 88 81
100 106 111 113 109 105 103 92 90 72 77 81 89 91 93 90 83 85 86 87 92 87 80 81 75 77 77 72 66 61 70 71 69 70 72 67 65 66 72 75 71 77 80 85 89 85 84 85 77
106 98 97 103 95 103 106 108 95 92 97 91 91 89 89 93 86 89 93 96 94 83 84 76 79 75 73 73 71 71 75 73 68 68 66 67 65 68 69 71 77 76 80 85 80 82 84 81 74
126 118 109 105 106 103 111 118 106 96 102 103 103 106 108 107 103 103 101 97 85 80 75 76 72 70 73 76 80 78 72 64 67 60 60 56 64 64 70 75 77 83 85 83 78 79 84 76 70
130 130 125 126 125 122 126 109 97 97 93 107 105 102 108 113 109 102 96 96 89 81 80 78 76 72 70 76 78 77 75 64 58 57 55 59 62 70 76 78 81 85 85 77 75 79 79 71 66
121 123 131 130 135 135 136 121 115 113 104 95 94 92 98 98 93 88 85 90 91 92 90 82 75 77 77 73 71 61 59 61 67 66 63 60 72 76 78 74 79 79 79 75 81 81 75 68 63
113 116 116 121 127 138 141 137 127 123 122 120 111 101 94 90 87 85 77 82 86 86 91 95 92 85 70 65 60 54 57 56 61 61 64 71 73 74 73 73 75 76 74 79 78 77 70 66 63
110 113 115 118 120 121 127 132 129 127 129 130 123 122 116 107 104 97 92 81 75 78 83 90 88 79 78 71 59 64 59 63 72 71 70 71 74 73 71 72 72 72 77 79 76 70 67 64 60
109 111 113 117 121 121 125 125 120 120 121 123 126 127 128 124 120 119 118 108 90 77 75 75 81 81 83 87 80 82 78 83 80 75 69 71 75 69 65 68 70 72 80 75 70 65 64 62 55
103 113 116 118 120 121 126 118 120 115 114 116 117 122 124 130 131 127 127 123 114 113 106 97 93 93 85 84 85 80 73 73 75 71 68 68 65 62 65 67 71 75 76 70 65 63 60 57 54
95 108 113 119 122 122 121 124 114 117 114 114 116 117 117 117 119 119 124 126 126 117 107 103 101 93 80 78 77 77 75 74 77 74 68 64 61 64 70 70 71 75 68 65 62 60 59 53 53
92 99 104 111 117 121 117 126 117 118 115 115 115 116 115 113 115 116 114 115 115 110 106 106 104 92 87 83 79 74 72 74 75 71 70 64 63 66 65 68 72 66 63 60 59 58 56 53 51
92 98 99 104 107 108 111 122 112 111 115 115 115 114 116 116 119 115 110 108 111 101 94 91 87 81 86 88 86 82 79 78 75 70 68 66 66 65 66 68 65 62 58 57 56 54 51 52 52
90 90 90 95 96 99 104 109 101 103 107 112 114 114 118 120 119 114 111 106 101 99 91 87 84 79 80 83 83 84 82 77 70 66 63 62 63 65 64 61 60 56 55 53 52 50 51 51 49
82 80 82 83 84 88 90 94 88 93 99 98 103 108 114 120 117 117 114 104 99 96 90 85 79 80 77 74 74 74 68 62 60 60 60 58 61 60 57 57 55 53 50 52 50 49 50 50 43
62 69 72 72 71 74 79 82 77 74 73 83 89 95 103 113 109 109 104 98 99 96 94 82 79 79 69 67 65 64 61 54 54 55 54 56 55 53 53 52 50 48 49 49 48 49 49 43 37
52 56 57 59 61 65 69 68 64 62 60 72 78 87 96 100 99 103 94 83 84 92 90 90 82 76 70 70 66 62 59 52 49 47 51 51 48 50 49 47 45 46 46 46 47 48 41 35 24
43 44 42 43 48 52 52 56 51 54 55 61 71 78 80 84 89 87 85 79 81 77 81 83 79 72 67 66 62 59 56 52 45 45 46 45 46 45 44 43 42 44 43 43 46 43 34 23 10

GFSSGP_250_spd_060.txt.gz
Wind_Speed
57 52 50 48 47 48 50 52 49 48 46 42 40 37 37 39 30 33 37 36 39 37 38 38 39 40 40 42 40 35 43 33 35 31 34 38 39 42 44 41 45 44 45 48 49 52 55 58 61
65 60 55 54 52 53 57 55 61 55 48 43 40 38 41 42 40 36 38 38 41 41 40 40 37 36 34 36 38 31 24 29 27 31 37 36 38 41 41 45 52 51 51 53 54 55 57 59 62
70 67 57 59 57 61 62 62 59 57 50 47 47 48 43 44 44 38 41 41 43 42 44 44 44 41 39 36 36 30 28 26 31 35 34 35 39 40 46 52 56 56 53 52 55 58 58 61 63
75 70 66 62 63 66 66 64 63 57 55 53 51 48 46 45 44 44 46 47 46 44 47 45 47 46 42 38 41 37 33 32 33 36 35 39 42 42 47 51 54 56 53 55 56 59 64 64 66
78 75 72 62 66 67 69 69 62 60 60 58 56 53 50 47 47 50 49 47 43 47 47 45 47 49 46 40 38 39 39 39 37 36 44 47 48 51 54 57 59 56 55 55 58 58 61 66 71
82 77 74 65 74 72 72 76 71 64 64 63 59 55 51 51 50 50 51 48 46 50 50 48 50 50 50 49 46 44 43 42 42 45 47 44 44 51 55 61 60 58 59 57 57 59 65 72 77
83 81 81 76 72 71 79 78 78 70 69 66 66 61 57 54 54 53 56 54 56 56 57 54 56 54 50 46 46 47 50 47 44 48 41 48 49 54 59 60 63 63 60 61 61 62 71 77 79
94 86 88 76 81 76 90 81 78 74 71 70 72 64 61 61 58 57 56 58 60 60 61 59 58 56 52 46 50 49 48 51 51 48 55 52 57 60 63 63 67 67 62 63 60 71 78 80 81
90 78 84 79 84 87 93 80 80 77 76 74 76 73 69 66 64 61 61 63 65 62 65 65 60 59 51 53 55 56 50 50 53 49 52 60 62 61 63 65 67 72 69 65 67 75 81 81 82
93 84 88 91 91 92 88 88 86 82 83 81 80 71 75 67 67 65 69 64 68 67 63 62 69 56 56 59 58 52 46 50 47 52 57 63 59 62 64 64 69 70 70 68 71 77 77 80 85
104 94 91 94 96 96 92 92 92 92 85 82 83 75 75 73 74 70 75 71 70 71 64 64 61 59 58 58 57 55 52 50 57 60 64 60 57 65 65 66 69 65 65 67 72 77 76 84 89
102 95 88 96 96 91 90 94 99 91 89 94 82 80 81 80 77 74 71 71 73 72 68 66 63 58 54 59 58 65 66 63 62 65 63 62 65 70 67 71 60 59 64 72 75 77 81 85 86
106 107 95 88 95 96 97 98 97 98 94 95 95 90 88 90 81 81 73 71 75 69 71 72 70 65 68 70 68 70 72 72 66 64 57 65 70 61 61 56 57 63 68 71 73 78 80 83 81
111 112 111 105 98 91 99 98 100 95 102 105 99 93 93 91 92 83 77 77 73 76 76 77 73 70 73 77 77 77 73 70 67 59 61 69 63 57 54 65 68 63 71 72 76 77 81 81 79
107 108 114 111 116 115 101 96 93 97 101 99 96 104 104 104 102 93 90 79 74 80 80 80 79 78 76 81 80 80 71 66 60 60 68 68 53 68 70 70 65 72 70 70 78 77 82 80 79
119 113 103 118 103 116 121 94 96 99 100 94 91 93 90 92 90 82 83 83 81 79 77 76 80 79 81 85 86 83 69 67 66 63 63 58 67 71 78 69 67 67 68 73 76 78 78 79 80
122 120 122 109 124 108 111 102 102 93 94 93 94 99 103 94 89 88 81 82 82 77 76 74 76 85 85 88 92 84 73 68 64 63 58 55 58 66 62 64 66 69 71 73 73 75 75 77 81
117 120 126 131 121 118 107 103 105 112 108 104 98 92 90 97 101 93 88 90 93 89 90 90 90 92 89 90 76 71 62 64 67 63 61 50 61 61 62 67 75 73 73 72 70 71 74 75 79
108 119 122 134 133 132 125 112 108 107 111 111 110 114 112 94 90 96 90 89 89 89 90 88 86 83 76 69 72 71 71 70 72 65 64 63 62 65 70 72 73 71 71 69 68 71 76 78 75
108 111 119 123 131 138 139 127 122 118 115 116 113 111 114 107 93 92 94 94 89 88 86 84 76 75 68 62 68 70 70 63 74 77 74 67 72 83 80 81 72 71 69 67 71 76 75 77 71
106 110 115 119 123 127 139 135 132 131 129 126 120 117 116 113 110 110 105 102 100 87 84 81 76 70 69 64 68 68 69 64 65 72 73 80 78 79 73 70 73 73 68 68 74 71 75 73 68
108 111 112 115 120 122 126 127 135 137 137 139 134 135 132 128 126 124 125 124 121 113 104 99 89 77 70 71 65 67 71 67 69 76 82 80 71 74 71 70 72 73 69 70 72 71 74 69 64
100 110 116 116 117 122 122 128 121 126 131 135 142 146 140 138 139 137 131 130 129 128 125 114 109 101 102 94 77 71 78 78 83 83 77 76 69 68 67 72 74 71 69 73 72 72 68 65 60
87 92 99 111 118 121 122 130 116 123 124 127 132 134 136 135 140 143 139 137 135 133 130 125 116 108 105 102 102 91 92 87 86 92 86 87 81 79 75 77 78 69 70 70 71 68 64 60 58
88 93 94 99 105 111 120 125 117 120 128 130 129 131 130 129 129 127 123 121 119 118 118 113 107 103 105 107 107 101 96 96 97 97 92 89 85 82 79 79 70 63 66 68 66 64 60 53 58
86 96 95 98 100 103 108 104 108 116 124 125 125 127 130 129 128 126 123 119 114 109 107 106 100 95 92 89 87 89 88 87 86 81 78 77 74 74 74 68 61 61 63 65 62 59 53 55 53
88 91 94 91 91 96 98 99 96 102 103 108 113 120 124 125 123 122 121 121 115 110 103 102 97 93 89 86 86 85 83 79 74 69 71 73 69 68 63 59 57 58 60 57 57 55 52 51 51
82 84 86 82 78 81 82 88 89 91 92 98 104 108 109 109 114 117 125 120 112 109 104 99 96 88 88 85 80 79 78 74 70 67 68 63 60 56 53 54 53 54 54 53 52 50 50 49 51
67 70 72 69 69 69 71 71 78 80 80 82 89 92 96 99 103 112 115 102 99 100 98 95 95 91 86 82 79 75 71 65 61 61 61 56 56 53 52 51 50 50 52 48 45 49 46 49 49
55 56 57 56 60 60 61 66 66 61 62 65 68 72 75 85 95 105 103 94 86 82 84 84 85 88 82 80 78 74 69 63 61 62 61 59 56 54 51 49 48 49 45 44 46 46 44 47 43

GFSSGP_250_spd_063.txt.gz
Wind_Speed
63 56 53 51 48 50 52 55 48 48 43 37 35 31 27 28 26 32 34 31 30 31 30 31 34 36 37 36 36 33 34 33 29 31 29 28 35 33 37 34 38 45 48 50 49 47 48 48 52
68 62 58 54 51 55 58 58 55 47 44 44 41 37 34 32 32 33 34 34 34 33 32 33 35 36 37 39 37 37 40 33 26 27 31 35 37 40 39 39 44 43 47 50 49 50 51 50 52
75 70 65 59 57 62 65 62 58 51 51 47 43 41 43 40 38 35 35 36 37 37 35 35 38 39 40 41 39 38 38 37 31 28 30 36 38 40 44 46 43 47 51 53 54 57 55 55 57
80 78 70 64 65 68 71 66 59 58 56 51 48 44 46 45 43 41 38 40 39 43 37 38 42 42 44 42 42 41 40 37 38 38 36 36 40 45 48 49 46 50 57 58 61 61 62 68 67
87 83 78 69 71 75 72 70 66 68 62 55 50 48 49 50 47 46 44 44 43 42 40 40 41 43 45 47 48 45 43 40 42 39 38 40 40 43 42 47 51 54 62 62 63 63 67 67 68
88 84 79 76 75 80 77 73 71 74 67 60 55 52 53 53 50 51 49 47 44 44 43 44 43 45 48 49 46 48 48 44 43 42 36 39 42 44 48 49 54 56 61 63 64 67 69 70 65
88 87 84 81 75 82 83 79 71 75 71 66 62 61 56 54 52 57 55 51 50 49 49 51 49 50 50 50 52 53 53 51 51 48 47 43 42 40 48 52 58 62 60 63 68 70 67 67 70
90 88 86 86 84 83 88 84 77 73 79 76 68 65 60 58 57 59 58 55 55 53 55 53 53 52 50 53 60 61 48 53 55 53 51 44 37 44 50 55 61 63 60 65 66 69 67 71 74
97 93 89 88 89 89 86 81 79 76 79 76 69 66 65 63 61 61 64 62 60 59 59 59 56 52 55 60 54 56 61 58 57 56 53 49 48 54 55 60 58 61 62 57 67 67 73 70 75
94 87 90 92 93 93 83 87 85 86 83 81 78 73 67 66 62 65 67 66 63 64 65 61 60 60 62 61 60 60 61 56 56 57 56 56 60 60 62 58 58 63 62 68 70 71 75 70 79
105 102 91 92 98 98 89 94 93 91 91 81 83 78 80 74 71 68 70 73 71 68 67 67 64 63 67 65 62 61 60 58 58 55 56 60 65 62 65 59 60 59 61 70 68 74 79 77 77
112 92 105 100 97 96 93 94 95 93 91 94 87 80 83 82 75 74 75 76 71 68 72 70 65 63 67 64 67 65 60 64 61 62 63 67 65 64 57 59 61 57 66 71 74 80 78 74 76
117 108 105 108 103 106 104 100 103 93 100 100 94 89 86 84 81 76 79 82 81 77 76 73 71 68 65 66 64 65 67 67 67 68 69 68 69 70 59 63 63 65 68 72 73 71 70 74 80
120 121 110 100 112 108 114 108 103 89 94 105 98 95 94 92 84 85 85 89 85 85 76 78 76 76 72 70 71 73 69 72 72 72 73 75 77 76 70 67 65 67 67 68 66 66 73 79 81
117 117 124 113 105 104 109 109 95 99 98 99 102 98 98 94 98 97 99 89 85 86 76 82 79 77 70 75 75 76 71 75 76 76 75 78 82 79 68 64 67 68 64 65 65 72 78 81 78
117 118 121 126 121 111 112 91 100 106 101 96 102 104 105 100 93 92 95 91 87 86 83 86 87 86 77 74 79 81 77 69 73 73 75 81 77 69 63 67 76 65 65 66 79 81 80 79 76
114 116 118 117 116 125 116 100 110 100 103 103 96 100 101 100 97 101 99 99 93 92 92 86 96 88 86 82 77 79 78 74 70 73 72 70 67 63 66 73 67 67 66 78 81 80 79 77 77
109 111 115 121 123 120 123 113 105 113 108 107 106 99 99 97 95 98 94 93 93 93 86 87 91 88 81 79 80 76 71 71 69 69 73 64 69 67 70 70 64 65 73 77 74 71 76 78 77
109 112 113 122 127 124 120 116 103 108 109 105 96 104 102 101 102 100 101 101 93 88 83 83 84 85 76 76 75 71 74 71 71 66 66 62 61 67 65 65 60 66 72 76 78 75 73 79 79
106 110 113 117 123 128 131 122 124 114 120 111 113 100 98 101 100 104 104 106 105 100 95 88 84 82 79 75 77 81 73 70 64 62 63 61 64 64 67 64 64 70 65 79 88 78 78 82 79
104 108 113 116 122 126 128 128 126 129 116 120 116 115 117 106 100 101 102 102 99 90 88 85 86 86 84 83 91 83 72 65 67 65 65 63 65 62 65 66 71 67 78 83 87 88 82 87 79
106 106 110 112 120 121 128 124 123 130 136 130 121 122 123 116 114 107 105 102 104 96 91 92 88 83 82 78 63 68 66 66 67 68 67 69 59 61 66 71 74 82 88 93 91 94 85 83 73
99 108 110 110 116 119 121 126 113 125 135 135 138 137 125 126 121 120 120 115 112 112 114 110 108 99 88 78 77 83 86 79 69 67 65 70 64 75 66 75 84 87 94 95 87 83 77 74 69
79 90 105 114 116 115 122 127 114 120 124 138 145 143 141 138 131 131 127 124 122 120 113 108 103 98 90 83 88 94 92 83 76 81 72 70 74 75 78 86 87 90 92 83 76 74 74 68 65
76 83 88 97 110 118 123 126 115 121 130 131 133 140 146 148 145 143 137 137 137 130 125 122 117 109 101 99 100 103 101 100 93 85 81 88 87 84 89 95 90 85 77 74 69 70 66 62 62
80 84 89 93 98 104 113 123 121 122 125 131 133 133 135 137 145 148 145 143 142 138 135 133 127 121 121 120 118 111 103 102 97 100 95 88 89 90 91 83 76 74 69 65 64 62 58 58 57
83 86 91 95 99 101 101 106 109 115 125 130 127 129 132 134 133 133 135 135 135 141 136 133 132 126 120 113 108 105 94 84 86 86 80 78 79 75 72 71 69 66 63 59 61 60 55 54 56
85 86 90 93 90 90 88 91 96 99 105 111 115 123 130 131 129 128 130 131 131 127 125 124 121 119 114 107 101 95 90 89 85 79 72 71 70 66 65 65 63 60 58 57 58 56 51 52 52
76 77 79 82 80 74 72 75 84 90 95 99 101 105 109 111 115 120 125 129 126 123 123 119 116 114 113 107 99 92 88 84 81 73 67 67 64 59 58 58 55 54 58 57 56 49 48 52 52
60 60 60 61 63 62 56 63 68 75 80 86 92 95 96 99 104 105 107 110 107 108 112 111 108 103 103 99 95 91 85 80 73 69 68 64 60 58 55 53 54 56 57 56 50 46 49 48 51

GFSSGP_250_spd_069.txt.gz
Wind_Speed
64 66 61 61 57 52 49 50 49 44 41 38 37 33 31 32 32 31 27 26 24 21 21 21 22 23 24 24 25 26 26 26 27 29 29 31 32 35 35 29 33 33 34 39 41 44 47 52 53
75 72 65 65 66 61 61 55 54 50 47 43 39 34 34 36 33 33 31 29 29 28 27 27 27 27 28 28 26 26 27 29 29 29 32 32 35 37 35 35 36 36 37 41 42 47 52 55 54
83 78 74 65 69 66 69 66 58 56 53 47 45 40 38 38 35 36 35 35 33 33 31 29 30 31 32 31 30 29 29 30 29 32 30 31 39 40 40 42 43 39 44 43 43 48 52 55 55
81 86 80 68 70 71 75 73 66 61 56 54 49 43 40 39 39 39 40 39 40 36 36 34 33 34 35 34 34 33 32 32 31 30 32 34 40 39 38 38 40 48 49 47 49 53 58 63 68
92 88 88 77 74 76 77 78 71 64 61 59 55 50 44 44 44 44 44 43 43 43 39 39 40 36 38 39 38 39 34 35 33 33 34 40 41 47 45 46 49 50 52 55 51 52 60 66 72
94 91 87 83 81 80 81 79 77 71 69 64 63 58 51 49 47 47 48 47 48 47 47 45 43 44 44 43 43 42 41 38 37 37 41 43 43 46 50 50 48 46 50 53 56 60 63 66 70
94 93 90 90 88 86 83 83 81 78 77 73 68 65 61 56 53 50 51 48 47 50 51 48 47 47 46 47 46 45 45 43 41 41 45 44 46 47 51 45 47 50 54 56 62 63 64 65 67
101 99 93 89 90 88 88 88 83 82 81 81 73 72 70 67 64 56 54 55 56 55 55 53 50 51 50 49 49 47 48 47 48 44 47 47 46 47 47 46 51 50 54 59 63 64 64 69 63
103 101 93 95 94 92 94 92 85 85 82 81 84 81 78 74 69 63 60 61 62 59 57 56 54 52 54 52 52 53 52 54 52 52 51 50 49 47 47 50 54 54 58 61 60 59 64 71 63
102 102 97 102 102 95 96 93 92 90 88 85 84 83 85 80 75 73 68 67 65 65 64 61 59 59 56 56 54 54 54 54 56 56 57 52 52 53 54 55 58 60 60 62 61 62 67 67 56
97 101 103 105 107 98 97 99 99 96 96 91 92 88 86 86 82 80 77 73 71 71 70 69 66 63 63 60 59 55 56 57 58 58 57 54 54 59 61 61 59 59 63 60 59 62 64 55 67
93 97 107 104 109 109 104 104 102 101 102 99 97 96 91 82 87 81 84 78 74 74 73 72 69 68 66 65 57 57 56 57 61 61 59 59 61 61 61 62 63 65 65 62 61 64 67 60 70
89 92 99 108 109 112 111 103 108 106 109 109 101 99 97 88 85 83 83 80 76 80 75 77 72 73 69 67 66 60 63 65 68 67 63 62 62 61 62 63 66 65 69 71 64 64 65 69 71
92 89 94 100 110 114 115 102 104 102 108 110 107 102 101 94 93 89 86 80 79 81 77 78 75 75 74 74 74 71 69 72 71 66 66 67 63 62 63 63 67 67 70 69 63 64 64 68 73
95 94 92 97 108 115 118 106 105 109 110 112 107 103 101 92 95 92 91 88 85 88 88 84 82 79 75 76 75 72 68 72 74 70 71 70 66 72 66 69 74 72 69 63 59 62 67 68 74
95 94 95 96 103 113 120 113 119 106 106 108 112 108 100 100 99 98 94 90 87 89 92 88 85 83 80 78 74 72 74 70 75 70 68 71 70 67 71 75 78 77 72 60 60 65 70 70 72
83 92 96 97 99 109 117 120 119 121 115 107 108 113 108 108 107 101 96 94 90 92 91 84 85 90 85 81 84 79 77 76 74 67 68 73 75 71 73 73 72 69 72 62 63 65 65 71 72
73 82 94 100 102 103 113 118 120 117 115 112 109 110 113 111 109 104 100 100 95 92 96 90 89 94 91 82 82 80 74 76 75 77 77 74 71 68 74 72 67 70 59 56 65 66 67 74 74
63 77 85 97 103 105 110 117 118 121 122 126 118 111 107 111 117 113 104 102 102 100 95 93 92 91 100 90 84 83 81 78 75 80 76 73 71 69 70 63 58 59 59 75 68 70 67 69 70
51 63 81 93 101 107 110 115 117 120 123 123 123 119 111 108 104 95 101 104 106 102 99 94 93 93 92 93 91 88 81 74 76 74 76 73 74 74 72 72 68 66 66 77 72 71 70 66 68
50 57 69 84 95 103 109 112 117 120 124 128 123 125 119 107 105 106 106 102 102 104 105 100 99 98 95 95 94 91 85 84 81 82 81 78 75 74 72 77 75 64 69 77 70 72 73 68 66
49 51 58 68 81 95 103 107 116 120 122 127 134 132 128 126 115 102 102 105 109 106 100 100 101 101 102 102 103 97 87 90 93 94 85 83 80 79 75 73 72 66 70 70 76 67 70 65 66
54 54 53 62 70 80 92 102 99 117 124 126 128 135 137 135 124 102 101 101 107 103 99 104 109 109 108 107 99 98 92 90 93 90 87 96 89 79 75 75 69 70 69 69 67 69 66 63 66
57 59 61 59 65 71 82 94 90 104 122 125 127 129 138 141 139 135 125 109 105 108 109 102 103 101 97 95 91 90 92 89 88 90 79 83 86 85 79 78 70 71 69 66 69 75 65 65 66
64 63 64 66 65 66 75 82 88 102 110 122 127 128 129 137 140 140 139 140 138 133 123 110 103 100 100 96 90 87 87 82 74 73 76 82 84 82 75 72 65 65 69 71 83 70 62 64 61
68 69 71 68 68 71 70 72 87 97 106 114 123 129 132 133 132 141 140 138 142 144 140 135 132 131 115 101 90 87 85 77 71 72 74 73 79 78 78 74 68 72 76 77 83 75 62 65 67
69 75 76 73 72 73 72 73 79 89 103 114 120 125 128 133 134 137 133 136 138 138 144 141 139 140 133 123 119 107 94 87 77 72 76 74 79 76 77 76 74 84 86 79 75 70 70 65 65
55 65 78 80 75 75 74 76 81 87 92 104 120 127 129 130 131 135 138 139 137 135 136 140 140 138 138 135 128 122 119 115 103 91 93 98 98 96 87 88 90 96 90 81 78 79 75 64 61
48 54 66 72 78 81 77 79 84 89 93 95 104 119 127 131 135 136 138 138 137 135 134 133 135 136 133 128 122 120 118 118 114 103 104 101 106 106 105 102 103 98 93 98 90 88 73 61 57
42 49 54 59 66 72 80 80 90 92 93 90 93 102 114 128 136 138 136 136 136 136 136 135 131 127 128 123 117 114 114 119 116 114 113 114 111 111 112 111 108 107 103 101 79 72 61 58 54

GFSSGP_250_spd_072.txt.gz
Wind_Speed
69 65 62 60 56 52 51 47 48 44 44 40 40 38 36 37 40 36 34 33 32 30 27 25 22 21 22 23 23 22 21 20 22 23 20 21 21 24 26 30 33 32 35 36 42 48 46 50 50
75 71 67 64 62 59 59 55 56 53 46 44 43 42 42 41 41 41 39 37 35 32 29 28 27 26 28 28 26 25 26 24 26 26 22 22 25 29 30 37 35 35 40 44 43 44 47 48 55
73 78 73 70 68 65 65 60 57 56 55 51 47 44 44 44 43 45 42 42 39 37 35 34 32 32 32 30 31 28 28 27 30 28 27 27 29 33 34 39 39 40 40 44 42 46 49 52 59
81 79 83 77 74 75 71 67 63 61 61 58 53 48 46 45 45 48 45 43 44 41 38 36 35 36 36 34 33 33 31 30 32 31 30 31 35 35 36 40 41 44 39 42 46 48 52 56 52
86 85 82 81 78 76 77 75 67 65 64 61 59 55 52 48 48 48 47 46 46 45 42 40 39 39 40 39 35 35 35 33 34 36 35 36 37 38 39 39 41 44 38 43 47 50 53 55 54
89 89 84 84 82 84 78 78 77 68 69 65 65 61 58 56 51 52 49 48 48 48 47 45 45 44 43 42 42 41 38 36 36 38 38 40 41 42 40 40 41 41 43 47 51 53 56 52 56
94 91 90 92 86 82 85 80 80 82 75 74 74 67 65 62 59 56 53 51 51 51 50 49 49 48 46 47 46 44 42 42 39 40 40 42 46 45 40 40 42 49 53 54 54 52 56 60 56
92 93 94 93 92 90 89 85 84 82 83 74 76 75 71 68 67 65 60 57 54 54 55 53 50 49 48 49 50 47 46 46 44 44 43 46 48 47 45 42 42 47 54 55 57 57 59 61 64
101 95 93 93 95 97 94 92 90 88 86 87 83 80 78 78 76 73 68 63 62 59 56 58 56 53 52 53 53 51 48 48 50 49 48 46 51 48 48 44 46 52 55 55 58 58 62 64 62
98 101 97 99 100 101 98 98 97 93 93 91 87 85 84 86 83 83 75 70 68 67 65 64 63 61 60 55 55 55 55 54 50 50 53 49 49 50 48 48 46 52 53 56 59 59 60 61 60
91 93 101 102 104 106 106 103 102 98 98 98 94 88 87 89 89 87 84 77 76 73 69 70 68 66 64 60 60 61 60 59 58 55 54 50 52 55 55 52 49 49 52 55 58 55 61 65 60
88 91 95 101 106 112 106 110 103 103 104 105 100 96 91 88 89 92 88 86 87 81 77 73 73 71 69 66 65 62 64 61 61 60 54 50 54 57 55 54 54 55 56 56 59 62 64 65 60
88 89 91 95 105 110 112 110 116 106 109 113 105 100 98 94 91 90 89 88 90 87 85 78 76 74 72 70 68 66 68 65 63 66 58 56 60 60 61 57 60 56 58 64 62 59 57 67 58
88 90 89 92 97 103 111 117 117 111 117 112 108 105 102 98 96 92 90 91 88 89 91 85 81 77 76 74 73 72 71 70 67 67 65 65 63 62 58 57 60 55 60 63 60 62 59 59 52
93 93 92 93 96 98 105 114 119 122 112 111 115 107 107 103 98 97 95 92 92 91 95 91 88 84 82 79 80 77 75 70 68 66 63 64 64 62 60 58 59 57 58 63 60 62 62 64 62
94 94 97 97 94 99 101 105 117 116 115 113 115 120 114 107 105 103 101 99 96 93 92 93 87 87 88 85 82 80 79 73 72 68 68 72 69 66 63 60 62 61 62 64 59 65 66 68 71
86 94 95 96 100 101 102 103 110 109 114 117 116 119 117 114 110 112 108 103 103 97 92 91 86 83 85 87 87 84 84 83 79 73 70 72 77 69 62 61 64 67 64 61 64 66 70 74 67
71 79 86 97 98 102 105 104 104 108 108 120 118 114 113 116 118 106 112 108 107 106 104 101 93 94 87 88 88 86 86 85 80 73 71 71 74 72 67 61 65 66 64 67 66 66 73 74 65
62 66 71 80 92 102 105 106 106 104 107 114 121 119 113 116 116 109 107 109 108 105 104 102 99 96 92 93 91 86 81 85 84 79 74 73 72 74 71 61 63 61 67 69 66 66 73 68 68
59 60 64 69 76 85 99 105 107 109 107 109 113 118 119 119 128 118 110 110 107 109 106 104 101 96 99 96 93 87 79 70 81 81 75 75 75 75 69 64 67 72 73 74 74 70 70 73 68
56 57 56 57 67 77 87 96 108 109 111 110 111 112 117 119 123 126 126 112 111 114 111 109 107 105 103 99 96 94 92 89 76 90 81 76 76 74 71 68 73 77 79 81 77 72 74 74 69
55 55 57 53 57 68 77 88 99 108 114 112 115 113 115 120 121 122 128 126 118 109 106 110 110 109 104 102 99 102 95 96 98 94 80 81 78 76 80 81 79 79 78 77 65 61 70 68 67
56 56 57 58 56 60 67 79 91 102 112 117 117 118 116 118 121 122 121 123 123 120 115 114 112 106 105 107 105 100 100 95 95 92 85 80 77 82 84 83 80 74 67 60 56 65 73 71 63
61 60 60 61 61 57 62 70 77 92 107 115 119 120 119 120 122 123 119 114 120 125 122 120 116 114 110 107 103 98 92 90 90 87 82 81 82 87 92 82 74 67 59 54 56 73 69 66 64
61 66 64 63 65 65 61 66 70 79 97 108 115 121 122 122 125 124 122 117 105 110 114 121 116 112 109 107 102 103 97 96 93 89 90 90 86 84 82 76 70 61 56 55 55 70 70 64 67
53 60 67 70 70 70 65 66 71 78 86 97 108 116 121 120 122 126 126 126 122 109 104 102 109 107 116 112 102 102 99 95 94 92 88 87 87 79 80 71 61 62 54 54 52 63 64 67 74
46 53 60 66 75 73 71 71 76 77 82 87 97 106 113 114 117 121 127 130 133 131 124 112 99 96 106 108 107 102 96 96 95 93 89 82 79 76 78 72 66 63 55 60 65 61 69 83 89
46 44 55 63 66 73 75 77 83 80 83 83 89 94 102 110 117 116 122 129 132 135 138 137 131 119 116 111 104 99 94 89 79 77 75 74 75 75 70 68 67 69 68 70 71 79 84 83 77
42 45 46 56 59 64 71 82 80 84 86 82 81 85 93 102 110 118 120 119 126 133 136 139 140 138 138 138 133 124 120 120 113 104 98 98 99 88 85 84 86 91 93 87 90 93 91 89 86
37 39 44 45 51 58 64 73 82 92 86 85 83 83 87 93 102 109 116 121 125 126 132 136 137 139 139 136 133 131 125 115 114 114 109 108 104 104 104 100 99 100 99 96 94 95 88 88 84

GFSSGP_250_spd_075.txt.gz
Wind_Speed
66 67 63 61 60 59 52 54 48 41 46 43 36 35 37 33 34 36 28 32 31 33 32 30 30 32 31 28 26 25 24 23 22 20 21 19 20 23 26 26 29 34 35 38 37 37 38 41 47
67 71 69 65 64 64 59 61 54 55 50 40 45 44 42 41 40 34 35 40 38 38 37 34 33 34 33 31 31 30 28 26 24 25 22 23 24 27 29 32 33 36 38 39 37 40 43 44 47
75 71 76 73 70 67 67 64 55 58 51 51 48 47 45 49 40 47 44 42 43 42 42 39 38 36 35 35 34 33 31 29 27 28 28 28 28 31 34 35 35 39 40 39 40 47 49 46 46
81 76 77 77 76 71 76 69 65 65 59 57 54 51 51 48 46 47 49 47 46 45 44 43 43 40 39 40 38 35 32 32 32 31 29 32 30 34 35 38 38 37 40 42 44 47 52 51 54
86 84 80 78 79 77 78 76 69 72 67 64 60 58 54 49 49 51 53 51 50 49 48 46 45 42 42 42 40 38 35 34 34 33 33 34 35 35 38 40 43 40 39 40 45 49 52 55 53
92 86 83 82 85 84 79 80 78 77 73 70 67 66 61 55 52 52 53 55 52 51 50 50 47 47 45 44 43 41 40 39 38 37 38 38 38 39 40 43 43 42 40 43 45 50 50 55 56
94 91 93 87 89 89 84 82 80 80 80 79 73 69 69 60 62 60 57 56 56 54 52 53 52 50 47 47 45 42 42 42 42 42 41 42 41 41 44 44 44 43 40 44 47 47 51 51 55
96 95 94 92 92 95 92 90 85 84 87 85 79 76 73 62 70 69 63 61 59 57 55 56 55 52 51 50 50 48 46 46 44 42 42 41 41 43 44 45 45 45 44 47 47 47 52 53 57
104 101 96 96 94 99 100 94 95 89 88 92 81 81 74 75 77 77 72 67 66 67 60 59 61 57 54 54 53 53 50 48 47 46 44 42 44 45 43 46 47 48 47 46 46 52 56 54 63
100 101 100 100 98 99 105 101 100 97 94 91 92 91 84 81 79 79 80 76 72 70 69 65 63 63 61 57 55 56 54 54 52 50 47 46 47 47 47 45 46 48 49 50 48 54 51 54 61
93 94 99 102 103 100 100 101 102 103 101 98 94 95 89 89 91 85 87 82 77 77 74 74 69 68 67 64 62 61 60 60 59 55 54 52 51 52 51 50 50 49 52 53 49 49 51 53 61
86 89 95 101 104 105 105 105 106 108 106 107 100 96 92 94 94 93 91 84 86 81 79 78 76 74 73 70 69 65 65 65 64 62 59 56 55 52 53 52 53 54 57 49 51 51 55 55 63
84 88 91 93 96 104 108 108 110 106 107 108 105 104 97 98 98 97 95 93 89 85 82 84 81 79 80 77 75 73 70 70 69 67 63 61 55 58 53 58 54 57 58 52 54 54 57 61 66
86 87 89 92 92 99 104 111 115 110 112 108 103 107 109 106 101 99 100 98 94 90 88 87 84 83 83 78 77 77 75 73 73 71 67 65 63 58 59 59 55 56 58 56 58 55 58 64 66
90 89 91 91 93 96 101 102 107 115 123 114 108 110 116 111 109 104 101 100 99 97 92 90 91 86 86 84 80 77 75 75 73 74 69 69 67 65 61 57 60 59 64 61 55 58 60 63 65
92 93 96 97 97 96 100 94 102 112 117 117 111 118 117 117 115 112 109 103 100 100 96 90 92 90 89 87 86 84 81 80 76 74 74 71 66 65 67 62 63 64 66 62 59 61 62 60 66
91 95 96 99 98 100 103 97 102 108 107 112 116 120 120 123 119 116 115 112 109 105 100 93 91 94 90 91 90 88 87 85 83 77 75 75 70 70 70 70 65 63 65 60 60 65 64 65 69
85 85 92 100 104 101 105 104 106 108 103 106 110 116 119 121 124 118 117 109 114 112 105 96 89 91 97 94 90 88 86 82 78 72 67 71 76 74 77 75 69 67 66 63 61 64 64 69 73
77 81 83 90 94 100 103 105 108 111 103 106 108 111 117 123 124 124 120 118 116 113 109 105 99 92 93 89 86 86 85 84 82 82 80 83 85 79 81 78 75 68 60 63 64 66 69 74 75
68 73 77 80 84 85 92 98 108 110 109 111 109 111 114 118 122 123 121 120 120 117 110 105 106 101 96 89 87 89 89 86 85 87 85 83 84 81 77 82 74 69 67 66 65 67 70 72 69
65 66 71 74 75 74 81 87 95 104 111 110 112 113 113 114 116 116 119 123 121 119 113 108 114 106 107 105 98 94 97 95 90 89 83 75 73 69 70 78 78 66 66 66 66 69 71 77 59
65 67 67 68 72 70 76 74 80 89 98 110 114 114 116 112 114 115 115 114 119 117 115 115 110 112 116 113 106 104 100 88 83 91 81 69 79 84 70 68 77 74 66 70 69 67 73 62 56
50 66 69 70 69 70 71 75 71 80 86 96 108 115 116 115 114 111 111 111 115 115 115 117 117 115 110 113 112 109 110 106 105 95 92 87 79 60 66 77 74 75 69 71 69 69 68 57 55
42 51 64 74 73 71 68 75 70 76 82 86 95 105 114 114 115 112 112 111 110 110 110 116 119 118 113 107 105 110 111 108 103 98 91 98 88 81 78 72 80 81 72 77 73 68 64 59 56
44 47 53 64 73 74 73 74 71 80 75 79 86 94 103 112 115 115 115 113 111 108 107 111 113 119 119 120 114 109 110 108 105 100 95 98 96 95 95 93 91 78 77 77 74 70 62 57 59
45 44 49 55 63 69 81 75 74 78 78 73 80 86 93 104 113 116 116 116 113 114 109 110 111 116 120 121 125 115 107 104 101 104 101 99 97 96 97 88 83 79 79 79 81 75 62 58 59
49 41 43 49 51 61 69 74 77 76 83 76 76 81 86 94 103 113 119 119 118 112 113 114 117 113 113 116 119 126 127 120 112 107 103 102 102 100 96 91 91 80 89 82 79 71 61 64 61
48 40 41 43 48 55 54 67 76 85 82 82 77 76 82 87 95 105 115 121 122 119 116 118 122 118 114 108 114 116 121 121 117 118 115 106 107 105 100 87 84 85 81 90 69 62 64 58 62
44 40 44 46 47 54 57 58 72 78 84 85 78 79 78 83 88 96 107 116 122 125 126 122 120 121 118 119 122 124 121 117 116 112 114 112 112 102 99 94 92 88 83 72 66 59 57 68 73
43 45 42 45 46 50 55 55 64 70 76 83 82 84 82 81 82 89 97 107 116 124 128 130 129 122 122 117 110 106 107 114 108 103 101 98 93 94 97 93 84 80 73 62 62 72 75 72 72

GFSSGP_250_spd_078.txt.gz
Wind_Speed
64 62 64 59 61 51 52 52 51 50 42 45 39 33 35 35 33 24 16 25 28 28 28 28 27 25 27 30 31 30 29 28 25 22 22 18 20 22 23 24 27 30 34 36 39 40 42 45 42
70 64 67 65 63 58 58 58 59 54 48 47 43 39 46 44 36 28 31 38 33 32 33 33 31 31 32 34 35 34 33 32 30 27 23 25 24 26 26 29 32 33 36 39 41 40 43 45 47
77 73 71 68 67 66 69 67 64 55 53 52 51 46 45 44 32 34 37 39 38 39 37 36 36 37 37 37 39 38 36 36 34 31 28 26 27 28 29 32 34 37 39 40 40 42 45 46 47
77 76 74 73 70 67 78 75 68 58 56 54 53 50 49 47 43 43 42 44 40 42 42 40 40 39 39 40 40 40 39 37 35 33 32 30 30 33 32 34 36 39 40 43 42 43 46 46 49
81 79 81 76 75 76 74 79 70 69 63 62 63 61 56 52 47 49 49 50 47 46 46 45 45 43 42 42 42 42 41 40 37 35 33 29 30 33 36 37 38 40 42 44 42 43 45 49 50
84 86 87 81 81 80 78 79 80 72 73 70 70 67 66 57 54 54 55 54 53 51 50 50 49 48 47 46 46 45 44 42 41 39 36 35 36 37 39 37 38 40 41 44 44 45 47 52 52
91 91 94 91 88 87 88 83 82 82 79 75 80 73 74 62 57 62 59 58 57 56 56 55 52 51 51 50 48 47 47 45 43 42 41 39 38 37 39 37 39 40 41 45 45 46 49 54 53
100 97 99 93 92 93 96 90 86 85 86 83 81 82 79 71 64 67 64 64 62 58 55 57 58 56 55 54 52 50 50 48 45 43 44 43 42 40 41 41 40 42 44 45 49 50 49 54 52
105 103 98 100 97 102 99 100 93 91 92 90 84 88 87 79 73 73 70 71 69 65 61 59 59 59 58 53 53 54 53 51 49 49 48 47 45 44 44 43 45 46 47 45 48 48 54 54 54
104 104 98 101 107 101 100 102 98 97 98 92 88 91 88 84 81 83 80 80 76 72 69 67 61 60 61 59 56 56 56 53 51 50 50 49 48 46 46 48 48 48 48 44 48 53 56 57 56
94 93 98 103 107 110 105 105 102 105 98 93 92 97 91 87 88 91 89 86 81 77 75 72 70 67 67 66 64 61 58 58 57 55 52 50 51 51 53 52 50 52 47 47 53 56 53 55 58
89 92 97 101 103 109 110 112 104 108 103 102 100 99 102 91 93 99 96 92 89 85 82 77 79 74 71 71 70 68 68 65 63 61 59 58 55 54 54 54 52 48 51 54 55 53 55 57 60
84 87 92 97 101 104 111 113 115 110 107 114 110 104 100 102 98 101 102 99 94 92 88 85 80 80 76 75 73 72 72 72 70 65 66 65 63 61 59 58 57 57 58 57 56 55 56 60 60
82 84 86 91 96 102 108 109 116 110 116 120 117 106 104 106 111 103 104 106 100 97 95 91 89 82 84 84 80 77 75 74 73 72 70 70 67 65 64 62 59 60 61 61 59 56 57 61 59
82 83 86 86 92 96 105 104 108 111 118 120 119 113 109 107 114 114 106 105 103 104 102 98 95 91 85 87 81 78 78 78 77 75 73 74 71 71 68 65 64 63 60 60 58 56 59 58 60
87 88 88 89 93 94 101 90 99 105 111 113 117 115 114 110 115 117 113 109 104 109 108 105 101 95 93 92 88 83 82 80 78 75 73 74 73 69 68 66 68 64 62 59 60 61 61 62 61
90 91 94 94 97 98 98 89 96 104 106 106 109 113 117 112 122 122 115 113 110 111 111 108 104 101 100 97 94 90 89 86 83 78 74 73 73 75 69 68 67 62 59 59 60 63 61 65 67
82 89 92 94 98 103 99 98 102 104 105 104 102 108 110 114 122 127 127 117 112 111 109 110 109 106 104 101 99 95 91 89 86 81 79 76 74 77 71 67 62 62 55 63 67 68 63 65 64
69 75 81 88 95 99 100 101 104 107 110 107 102 106 108 110 116 127 126 124 116 114 114 108 107 108 107 102 97 89 92 90 87 84 84 80 79 76 70 64 60 58 66 70 74 75 68 67 68
60 67 71 77 85 94 94 99 102 107 110 112 111 110 109 111 111 119 120 119 119 124 121 116 114 114 111 104 100 97 91 92 93 84 78 76 73 72 69 68 68 71 78 81 80 76 67 69 70
31 42 59 72 77 81 85 92 96 98 108 113 113 111 112 113 113 116 118 111 116 122 127 125 119 116 113 107 102 102 99 98 93 88 82 75 71 70 68 67 71 70 69 74 75 69 63 64 67
34 36 38 47 63 75 81 80 85 90 97 103 108 113 116 118 118 116 117 109 109 115 119 123 125 123 119 109 105 102 100 97 94 87 89 85 79 75 75 75 73 70 65 66 69 67 55 55 62
41 42 45 44 49 63 68 83 68 82 89 94 100 104 107 114 119 117 119 113 105 112 113 118 121 124 120 118 109 102 99 103 94 91 86 81 81 80 79 72 75 67 77 68 65 61 59 51 48
49 50 54 49 49 58 53 73 71 79 85 89 96 90 92 101 108 115 119 118 113 114 114 114 115 113 114 116 120 112 105 102 98 94 92 88 85 77 68 74 79 83 70 63 57 59 50 63 60
52 60 58 53 54 53 54 65 69 76 87 87 89 82 84 91 96 104 110 118 119 116 114 112 113 111 110 112 115 118 117 113 105 103 99 95 89 80 75 77 80 69 66 72 69 60 58 62 76
60 63 69 57 51 50 50 59 62 70 83 85 85 75 79 86 89 94 100 105 112 118 117 117 114 113 111 110 110 112 115 118 114 115 111 104 98 96 94 89 78 77 80 81 81 80 74 79 77
63 67 70 62 46 46 48 53 55 66 72 80 81 80 78 82 86 87 87 94 103 110 117 116 116 115 112 111 109 109 108 109 116 118 117 110 112 105 101 101 94 85 87 84 85 84 80 77 78
70 74 69 57 45 42 41 48 55 55 63 68 70 74 82 79 83 83 83 86 92 99 107 114 116 115 114 113 111 108 105 106 108 113 113 119 116 113 109 104 97 90 91 91 91 83 77 80 79
70 75 65 49 44 44 43 44 53 55 59 64 66 71 78 81 80 82 83 80 84 90 97 106 114 115 115 117 115 110 108 106 105 108 112 114 112 110 109 107 100 92 91 91 90 83 88 86 77
74 67 57 44 43 41 41 33 59 57 61 65 66 63 73 77 81 81 82 83 80 83 90 96 105 110 116 114 115 115 112 111 109 107 106 108 108 106 107 108 104 95 89 87 87 94 88 82 86

GFSSGP_250_spd_084.txt.gz
Wind_Speed
64 61 57 57 57 54 57 56 51 51 47 46 42 39 35 33 24 26 23 35 35 33 36 36 36 36 36 34 33 30 28 26 28 27 25 21 25 26 28 25 25 25 26 29 32 33 34 37 40
69 63 62 64 61 58 63 59 56 54 53 51 47 42 41 37 33 31 33 33 34 40 37 39 38 37 38 37 35 32 32 30 29 30 29 27 28 31 32 31 27 28 30 29 33 35 34 39 42
73 72 66 61 64 66 69 63 63 59 58 56 47 46 45 41 42 37 32 35 35 34 38 37 38 40 41 41 38 36 35 34 31 31 32 33 32 33 35 34 32 31 30 33 35 36 37 40 45
68 68 68 65 68 72 71 68 66 64 62 61 57 52 51 48 47 47 37 38 38 36 42 40 40 41 41 40 40 39 36 34 34 33 34 35 34 34 34 33 31 33 34 34 35 38 40 40 44
72 69 72 66 69 70 75 76 70 67 69 66 63 62 58 56 53 49 46 42 46 42 41 40 40 41 41 40 41 40 39 37 36 35 34 35 34 33 33 33 33 35 36 37 39 40 40 42 47
80 78 76 73 73 74 77 78 74 73 75 70 65 62 65 63 59 56 50 51 54 50 48 45 45 45 44 44 43 42 41 40 39 38 36 36 35 34 34 32 34 37 37 38 40 41 42 44 47
84 83 81 80 75 76 81 81 76 79 77 74 75 70 67 67 65 63 57 55 58 60 55 54 51 50 49 48 46 43 42 40 41 40 39 39 39 37 37 36 38 41 41 43 42 43 45 45 46
92 87 90 91 86 84 90 88 86 83 82 85 78 74 74 74 70 69 64 61 64 64 65 62 60 57 54 52 50 49 45 45 44 43 43 43 41 40 39 37 38 40 44 45 46 47 45 46 49
96 99 91 92 97 89 95 91 92 90 88 87 88 83 75 77 74 75 71 71 69 71 70 68 67 64 60 56 52 52 52 51 51 50 48 48 48 44 41 41 42 44 44 46 49 48 48 50 49
109 102 106 106 107 100 103 94 93 95 92 90 88 91 90 79 78 80 78 73 74 77 76 74 72 71 69 64 60 56 55 54 53 54 53 51 50 45 45 44 44 46 47 49 52 53 53 52 50
108 107 113 112 112 105 109 108 108 102 90 92 94 95 90 87 87 81 83 77 79 79 85 81 79 77 75 73 69 64 61 59 58 56 55 54 52 50 49 49 49 50 51 53 55 55 56 55 52
103 103 109 113 112 114 112 115 112 109 108 112 101 102 99 93 93 93 87 84 86 87 84 86 84 80 81 80 79 77 72 69 65 63 59 58 57 55 55 54 54 54 54 56 57 58 57 57 58
91 103 104 105 109 112 112 110 111 113 114 119 112 109 110 105 103 96 96 96 89 90 92 90 90 91 87 89 86 81 81 78 76 72 67 66 63 61 59 58 59 58 58 59 61 62 60 60 62
88 88 93 98 102 107 109 110 110 106 119 122 125 122 118 117 112 113 102 97 100 98 97 98 96 91 91 95 92 91 86 82 80 76 75 71 70 67 66 64 63 63 61 62 64 65 64 62 61
81 82 86 91 95 99 106 104 104 103 111 118 121 124 122 117 115 111 117 110 110 101 101 103 103 104 95 98 99 93 92 90 85 84 82 79 77 75 73 71 70 67 65 64 65 66 65 61 57
78 80 82 88 94 98 108 96 95 100 105 104 106 116 122 123 115 112 113 116 114 114 107 107 108 107 108 106 103 100 97 93 92 90 89 86 83 81 79 76 74 71 67 68 67 64 62 60 57
81 82 84 89 93 93 97 88 90 98 101 98 100 103 105 112 119 113 113 110 114 116 111 112 109 111 110 105 111 106 100 97 92 92 92 93 92 89 85 82 78 74 68 66 67 67 65 63 61
75 80 86 89 94 93 96 92 93 97 100 99 100 100 104 108 107 108 109 111 109 109 116 115 113 110 115 115 103 105 108 104 97 92 92 94 93 94 94 90 83 78 74 69 69 69 67 66 63
37 51 65 78 87 94 96 91 92 96 99 99 99 101 102 104 107 108 105 104 106 107 107 110 115 115 112 112 113 108 96 101 102 97 79 82 82 88 93 91 92 86 81 77 73 72 70 68 65
33 35 39 44 57 71 76 80 92 99 99 102 103 105 107 110 112 110 109 106 105 106 105 106 109 115 120 121 119 116 114 107 94 92 94 91 80 87 87 87 84 79 80 79 76 76 72 69 66
25 29 37 40 46 45 46 50 64 77 86 95 101 109 110 114 116 116 112 108 106 104 106 107 106 108 116 121 122 119 118 113 109 106 97 98 99 93 93 96 93 88 86 80 73 72 68 70 61
30 32 29 34 42 44 49 40 47 56 63 74 84 93 102 110 118 120 119 113 106 105 108 108 106 108 109 113 117 121 119 118 112 109 107 100 99 102 101 100 96 92 91 86 80 79 75 72 64
37 34 32 32 34 41 46 50 47 57 59 66 69 77 87 96 108 115 122 120 116 111 110 109 112 112 112 111 113 112 116 117 114 115 113 111 104 101 102 102 95 95 92 89 83 79 82 75 70
46 40 39 39 35 32 45 52 36 55 65 69 72 75 80 85 91 101 110 114 115 116 117 121 116 116 117 114 111 111 110 109 108 109 111 112 114 102 89 95 98 95 89 86 82 75 74 70 68
53 50 44 40 41 36 47 46 40 58 73 73 72 78 85 87 88 89 96 102 106 111 117 118 120 120 120 120 117 114 111 109 108 107 106 107 108 110 106 99 95 94 91 91 87 75 73 65 69
55 62 53 46 47 45 51 44 46 58 70 74 79 78 88 84 84 84 84 91 98 103 108 109 116 119 122 122 119 115 114 110 108 108 107 104 103 105 105 96 94 95 93 84 83 88 80 78 73
61 64 59 56 56 48 44 46 50 64 73 75 73 76 80 75 74 76 78 83 89 93 96 105 107 110 114 121 121 119 117 115 112 110 108 106 104 103 102 96 94 90 99 96 85 74 76 70 78
69 68 64 62 64 58 51 50 60 68 75 69 63 66 63 66 65 64 69 75 79 87 86 92 98 102 106 112 115 117 118 117 115 112 111 109 107 103 102 99 93 91 92 99 99 86 79 75 65
71 73 71 68 66 64 64 59 74 72 67 63 59 60 56 57 58 56 59 67 70 71 73 81 91 97 98 102 106 107 110 113 113 112 112 111 109 106 102 99 96 91 89 89 90 96 93 89 86
71 72 75 74 66 67 71 63 74 61 52 56 56 53 51 50 55 56 59 60 58 56 57 65 81 90 97 95 96 98 99 101 103 106 108 111 110 108 106 103 97 94 89 86 86 94 97 96 96

GFSSGP_250_spd_087.txt.gz
Wind_Speed
63 59 54 53 53 56 55 52 51 48 46 47 42 35 33 31 32 33 33 32 28 31 33 35 39 39 38 36 35 35 33 32 31 29 28 25 24 23 27 29 32 32 31 30 32 32 32 30 35
70 66 62 58 56 58 60 56 55 57 53 50 45 40 39 33 33 34 37 36 32 32 37 36 36 39 39 38 37 38 36 35 33 32 30 29 29 28 28 30 32 35 35 33 34 34 35 34 35
66 71 67 66 61 66 66 63 61 61 60 57 53 46 44 41 39 39 40 40 37 33 31 39 37 38 41 40 40 40 40 38 37 34 32 30 31 32 33 34 33 33 32 31 33 34 36 36 37
72 70 68 64 70 72 69 70 67 68 65 60 56 52 50 47 43 42 44 45 43 38 37 37 41 42 44 41 41 42 43 41 39 37 35 35 33 33 33 33 33 34 34 33 36 36 37 38 37
70 74 66 66 71 77 75 75 69 70 70 66 64 56 56 54 50 47 47 50 47 46 43 40 39 41 43 43 43 45 45 43 43 40 37 37 36 35 34 35 33 32 33 34 36 36 37 39 39
80 75 72 67 68 72 79 83 76 75 75 70 69 64 60 59 57 54 50 53 53 51 51 48 45 42 46 46 47 47 48 46 45 44 41 39 38 38 37 36 37 36 37 36 37 37 38 40 39
82 78 80 73 77 77 80 79 77 79 76 78 73 72 63 64 61 63 60 58 57 57 57 56 53 50 51 51 50 50 51 50 47 45 44 43 42 40 40 39 39 37 38 39 41 40 40 42 40
90 83 77 81 84 85 88 84 77 80 78 80 79 72 71 68 69 68 65 60 65 63 63 62 59 57 57 56 55 55 55 55 52 49 47 47 45 43 42 42 42 43 45 43 43 43 42 42 42
92 87 89 90 90 97 93 87 88 81 81 86 84 82 79 76 74 71 69 67 66 70 70 67 65 64 61 61 61 60 59 58 57 55 53 50 48 49 45 46 46 47 46 46 45 47 48 47 45
100 98 98 106 99 101 102 96 90 90 84 86 86 87 89 81 83 78 74 76 75 73 75 74 74 70 68 66 66 64 64 63 62 59 58 57 55 52 51 50 49 48 48 49 49 50 51 51 49
109 102 106 107 105 103 111 97 108 95 86 95 94 92 94 93 85 84 81 84 80 80 79 79 78 81 79 75 72 70 69 69 68 67 64 61 60 58 57 56 53 52 51 51 51 53 54 54 53
110 112 113 115 114 110 116 115 105 103 99 108 99 97 100 98 90 87 89 86 87 81 85 86 85 82 82 79 77 77 75 74 73 73 70 68 65 62 61 60 60 59 56 55 54 55 58 58 57
101 108 111 115 122 121 120 118 117 114 119 115 116 110 107 97 91 94 92 93 93 90 91 90 89 88 86 86 84 83 80 81 80 78 76 74 71 70 65 64 63 62 61 59 58 57 60 61 60
94 100 104 107 113 119 116 114 118 118 125 121 119 117 118 113 107 107 100 92 90 101 99 97 97 96 94 91 85 84 83 85 80 79 80 79 77 76 74 71 69 67 64 64 64 63 63 64 64
84 87 92 99 107 110 116 114 111 113 121 123 120 120 117 120 116 114 111 115 112 101 99 101 105 101 100 101 100 94 93 87 87 84 86 86 86 86 83 79 75 74 71 70 69 69 68 67 68
76 79 85 93 99 100 102 95 104 110 118 121 122 118 113 110 113 113 115 119 115 117 115 112 106 104 105 106 106 101 98 97 95 91 90 88 88 89 90 90 87 82 77 75 74 74 73 71 67
77 79 81 85 89 89 91 88 95 102 106 105 109 118 121 117 118 116 115 118 121 115 115 118 117 116 113 109 111 107 105 103 99 96 95 93 93 92 93 92 91 91 86 83 80 79 79 75 69
59 73 82 85 92 87 87 85 90 95 100 101 101 106 113 116 115 114 114 119 122 124 119 120 124 122 121 118 113 111 106 106 102 105 101 99 97 96 93 96 94 91 89 85 86 85 84 82 76
27 34 45 62 78 87 92 90 92 96 96 97 97 98 99 102 108 111 114 117 119 117 109 114 117 124 122 119 116 113 112 111 102 95 98 100 94 94 100 97 97 95 88 87 82 82 75 74 74
19 23 31 37 46 51 60 73 87 95 99 102 102 105 105 106 106 107 110 111 112 112 113 115 113 113 119 120 114 114 114 114 109 101 93 95 89 92 91 92 92 93 92 77 73 69 73 69 67
22 24 26 28 36 38 46 48 54 62 74 90 98 103 107 105 107 109 108 107 106 103 105 106 107 109 114 115 114 114 108 110 108 104 102 94 92 90 88 81 76 71 69 73 73 77 74 71 68
27 29 30 32 32 34 43 37 48 58 64 67 73 84 88 96 104 109 111 112 113 112 116 112 107 106 110 113 114 113 110 109 108 106 105 106 101 98 92 83 92 82 82 76 69 76 77 78 79
27 35 36 36 36 33 35 39 43 53 60 70 71 71 71 74 79 88 100 105 111 113 115 115 111 113 115 114 113 114 114 112 109 105 105 108 111 112 101 87 84 84 67 68 73 81 80 80 83
34 36 38 38 38 37 38 40 33 46 53 65 71 74 77 78 78 80 82 85 90 95 104 111 115 117 119 120 121 117 114 114 111 108 106 106 109 110 110 108 96 89 84 83 80 92 83 79 70
42 43 41 42 43 43 45 38 33 46 58 63 68 72 78 80 80 82 85 88 88 91 90 94 106 113 119 125 124 123 120 114 109 107 105 105 103 107 110 108 110 96 89 98 101 102 97 86 88
47 47 48 43 44 47 53 42 41 47 53 59 64 68 72 77 79 83 86 89 92 95 96 99 102 104 105 114 121 125 124 119 113 108 106 106 104 103 105 109 112 112 109 104 109 102 101 97 88
52 52 53 53 53 49 52 51 47 52 55 60 64 70 72 76 81 84 86 93 97 99 101 99 96 100 100 99 105 110 118 123 119 114 111 109 106 106 104 104 107 108 107 110 104 99 97 90 94
56 55 57 60 58 58 58 59 55 54 61 67 67 71 76 81 85 89 90 95 97 95 91 87 85 88 92 94 95 99 106 113 115 116 115 113 110 107 106 104 103 103 103 101 99 97 92 95 85
61 62 62 64 65 69 65 62 59 63 61 63 73 77 76 79 77 75 76 79 81 81 78 79 77 79 82 88 94 95 98 103 108 109 110 111 113 111 109 108 106 104 103 100 96 95 92 88 84
63 67 68 68 66 72 76 64 69 68 68 68 68 67 65 65 62 61 57 59 63 65 65 66 71 74 76 76 81 87 92 97 100 102 102 104 106 108 111 111 109 106 104 99 96 93 88 86 84